Regional Weather Roundup
Issued by NWS

Home | Current Version | Previous Version | Graphics & Text | Print | Product List | Glossary On
Versions: 1 2 3 4 5 6 7 8 9 10 11 12 13 14 15 16 17 18 19 20 21 22 23 24 25 26 27 28 29 30 31 32 33 34 35 36 37 38 39 40 41 42 43 44 45 46 47 48 49 50
000
ASUS43 KIND 011459
RWRIN

WEATHER ROUNDUP FOR INDIANA
NATIONAL WEATHER SERVICE INDIANAPOLIS IN
1100 AM EDT TUE SEP 01 2015

NOTE: "FAIR" INDICATES FEW OR NO CLOUDS BELOW 12,000 FEET WITH NO
SIGNIFICANT WEATHER AND/OR OBSTRUCTIONS TO VISIBILITY.

* - STATION DOES NOT REPORT WEATHER SUCH AS PRECIPITATION OR FOG.

+ - STATION NOT QUALITY CONTROLLED BY THE NATIONAL WEATHER SERVICE.
    USE DATA WITH CAUTION...ESPECIALLY DEWPOINT AND RELATIVE
    HUMIDITY OBSERVATIONS.

INZ001>003-010>013-019-020-011600-
NORTHWEST INDIANA

CITY           SKY/WX    TMP DP  RH WIND       PRES   REMARKS
GARY /AIRPORT/ MOSUNNY   81  70  69 SW6       30.08R
KNOX *+        SUNNY     79  70  73 SW7       30.09S
MONTICELLO +   MOSUNNY   78  70  77 SW10      30.11R
RENSSELAER +   PTSUNNY   77  72  83 SW9       30.11R

$$

LMZ046-743>745-011600-
SOUTHERN LAKE MICHIGAN

STATION/POSITION TIME  TEMP    WIND        PRES    WAVE
                       AIR SEA DIR/SP/G            HT
                 (UTC) (F)     (DEG/KT/KT) (MB)    (FT)
BURNS HARBOR     1400   75     190/  8/ 11 1018.6S
MICHIGAN CITY    1400   75     160/  8/  9   N/A
5NW MICH CITY    1400   73 72  190/  6/  8   N/A     1

$$

INZ004-005-014>016-021>024-011600-
NORTH CENTRAL INDIANA

CITY           SKY/WX    TMP DP  RH WIND       PRES   REMARKS
GOSHEN         SUNNY     80  72  76 SW7       30.10F
SOUTH BEND     MOSUNNY   78  71  79 SW7       30.10S
WARSAW +       SUNNY     79  72  78 SW5       30.11S

$$

INZ006>009-017-018-025>027-011600-
NORTHEAST INDIANA

CITY           SKY/WX    TMP DP  RH WIND       PRES   REMARKS
ANGOLA *+      SUNNY     82  73  74 W5        30.12R
FORT WAYNE     MOSUNNY   80  71  74 SW6       30.13S

$$

INZ028-029-035-036-043>045-051>053-011600-
WEST CENTRAL INDIANA

CITY           SKY/WX    TMP DP  RH WIND       PRES   REMARKS
CRAWFORDSVL +  PTSUNNY   78  67  67 SW12      30.14R
GREENCASTLE +  MOSUNNY   79  64  61 S6        30.15R
LAFAYETTE      PTSUNNY   76  69  79 W9        30.12R
TERRE HAUTE    PTSUNNY   74  64  71 SW8       30.15R

$$

INZ030>032-037>040-046>048-054>057-064-065-011600-
CENTRAL INDIANA

CITY           SKY/WX    TMP DP  RH WIND       PRES   REMARKS
ANDERSON       SUNNY     81  64  57 SW6       30.16R
FRANKFORT +    MOSUNNY   78  70  75 SW10G20   30.15R
GREENWOOD *+   PTSUNNY   81  66  61 SW5       30.16R
INDIANAPOLIS   MOSUNNY   80  67  64 SW10      30.14S
-EAGLE CREEK   SUNNY     79  68  69 VRB6      30.14R
KOKOMO *+      MOSUNNY   82  70  65 SW8       30.13R
MT COMFORT *+  MOSUNNY   81  66  61 W7        30.15S
SHELBYVILLE    SUNNY     82  70  66 W5        30.14S
ZIONSVILLE +   SUNNY     80  68  66 SW9       30.15S

$$

INZ033-034-041-042-049-050-058-059-011600-
EAST CENTRAL INDIANA

CITY           SKY/WX    TMP DP  RH WIND       PRES   REMARKS
MUNCIE         MOSUNNY   78  69  73 VRB3      30.15R

$$

INZ060-061-067>069-081>083-085>088-011600-
SOUTHWEST INDIANA

CITY           SKY/WX    TMP DP  RH WIND       PRES   REMARKS
EVANSVILLE     SUNNY     83  67  58 SW6       30.15R
HUNTINGBURG *+ SUNNY     81  68  65 SW3       30.16R

$$

INZ062-063-066-070>080-084-089>092-011600-
SOUTH CENTRAL AND SOUTHEAST INDIANA

CITY           SKY/WX    TMP DP  RH WIND       PRES   REMARKS
BLOOMINGTON    PTSUNNY   75  68  78 W6        30.16R
MADISON *+     SUNNY     81  63  54 CALM      30.18S
SEYMOUR +      SUNNY     82  68  61 CALM      30.15R

$$



USA.gov is the U.S. government's official web portal to all federal, state and local government web resources and services.